Regional Weather Roundup
Issued by NWS

Home | Current Version | Previous Version | Text Only | Print | Product List | Glossary Off
Versions: 1 2 3 4 5 6 7 8 9 10 11 12 13 14 15 16 17 18 19 20 21 22 23 24 25 26 27 28 29 30 31 32 33 34 35 36 37 38 39 40 41 42 43 44 45 46 47 48 49 50

000
ASUS43 KMKX 042121
RWRWI

WISCONSIN REGIONAL WEATHER ROUNDUP
NATIONAL WEATHER SERVICE MILWAUKEE/SULLIVAN WI
400 PM CDT MON MAY 04 2015

NOTE: "FAIR" INDICATES FEW OR NO CLOUDS BELOW 12,000 FEET WITH NO
SIGNIFICANT WEATHER AND/OR OBSTRUCTIONS TO VISIBILITY.

WIZ001-002-006>008-014>016-023>028-042200-
NORTHWEST WISCONSIN

CITY           SKY/WX    TMP DP  RH WIND       PRES   REMARKS
SUPERIOR ARPT  PTSUNNY   67  24  19 E7        30.18S
ASHLAND        MOSUNNY   65  28  24 NE6       30.19F
HAYWARD        MOSUNNY   66  18  15 VRB7      30.18F
SIREN          SUNNY     70  22  16 N7G20     30.18S
CUMBERLAND     SUNNY     66  27  22 N8        30.17F
RICE LAKE      SUNNY     68  23  17 N6        30.18F
CHETEK         SUNNY     68  30  24 N6        30.16F
LADYSMITH      SUNNY     68  29  23 NE3       30.18S
EAU CLAIRE     MOSUNNY   70  28  21 MISG      30.15F
MENOMONIE      MOSUNNY   69  25  19 NE6       30.16S
NEW RICHMOND   SUNNY     70  23  17 N9        30.18R
OSCEOLA        SUNNY     69  31  24 NE5       30.19F
$$

WIZ003>005-009-010-017-018-042200-
NORTH CENTRAL WISCONSIN

CITY           SKY/WX    TMP DP  RH WIND       PRES   REMARKS
MANITOWISH WTR MOSUNNY   62  21  21 N3        30.19S
ARBOR VITAE    MOSUNNY   64  22  20 NE7       30.18S
WOODRUFF       MOSUNNY   64  22  20 NE7       30.18S
RHINELANDER    SUNNY     65  28  24 NE7       30.17F
EAGLE RIVER    MOSUNNY   65  15  14 NW6       30.17S
LAND O LAKES   MOSUNNY   64  24  21 N7        30.19S
PHILLIPS       SUNNY     65  25  21 NW5       30.16S
TOMAHAWK       MOSUNNY   66  29  25 CALM      30.18S
MEDFORD        SUNNY     67  31  26 N7G16     30.16S
MERRILL        MOSUNNY   68  31  25 NE9       30.16R
$$

WIZ029-030-035-036-043>047-042200-
CENTRAL WISCONSIN

CITY           SKY/WX    TMP DP  RH WIND       PRES   REMARKS
WAUSAU         MOSUNNY   69  28  21 N8        30.14S
MOSINEE        SUNNY     68  34  28 CALM      30.16S
MARSHFIELD     MOSUNNY   70  34  26 N9        30.15F
STEVENS POINT  MOSUNNY   69  34  27 W6        30.14F
WAUPACA        MOSUNNY   75  35  22 NW3       30.13S
WAUTOMA        MOSUNNY   74  37  26 NW6       30.13S
WISC RAPIDS    MOSUNNY   70  31  23 NE5       30.15S
CAMP DOUGLAS   PTSUNNY   73  37  27 VRB2      30.13S
$$

WIZ011>013-019>022-031-037>040-048>050-042200-
NORTHEAST WISCONSIN

CITY           SKY/WX    TMP DP  RH WIND       PRES   REMARKS
ANTIGO         MOSUNNY   65  32  28 CALM      30.17R
SHAWANO        MOSUNNY   75  31  20 W8        30.13S
OCONTO         SUNNY     67  42  39 E9        30.14S
STURGEON BAY   SUNNY     63  39  42 E13G20    30.19S
GREEN BAY      MOSUNNY   74  40  29 SW7       30.12F
MANITOWOC      SUNNY     62  41  46 E13       30.17R
APPLETON       MOSUNNY   72  37  28 VRB5      30.14S
CLINTONVILLE   MOSUNNY   72  32  23 NE6       30.12F
OSHKOSH        MOSUNNY   70  41  34 VRB7      30.14S
$$

WIZ032>034-041-042-053>061-042200-
SOUTHWEST WISCONSIN

CITY           SKY/WX    TMP DP  RH WIND       PRES   REMARKS
LA CROSSE      PTSUNNY   73  37  27 NW10      30.13F
SPARTA         PTSUNNY   72  32  22 NW5       30.15S
VIROQUA        PTSUNNY   71  39  31 CALM      30.15S
BOSCOBEL       PTSUNNY   76  48  37 VRB7      30.11F
PRAIRIE DU CHI PTSUNNY   73  47  38 NE5       30.11S
PLATTEVILLE    PTSUNNY   72  56  57 E6        30.12S
$$

WIZ056-057-062-063-064-067-068-042200-
SOUTH CENTRAL WISCONSIN

CITY           SKY/WX    TMP DP  RH WIND       PRES   REMARKS
REEDSBURG      MOSUNNY   72  46  40 N3        30.13S
BARABOO/DELLS  NOT AVBL
LONE ROCK      MOSUNNY   74  51  44 N5        30.11F
MINERAL POINT  PTSUNNY   72  52  49 E7        30.12F
MADISON        PTSUNNY   73  53  49 NE8       30.12F
MIDDLETON      PTSUNNY   75  48  38 NE5       30.13S
WATERTOWN      PTSUNNY   69  54  60 E13       30.12S
MONROE         CLOUDY    72  55  56 NE3       30.12F
JANESVILLE     NOT AVBL
$$

WIZ051-052-058>065-066-070>072-042200-
SOUTHEAST WISCONSIN

CITY           SKY/WX    TMP DP  RH WIND       PRES   REMARKS
MILWAUKEE      PTSUNNY   59  41  51 NE9       30.16S
WAUKESHA       PTSUNNY   66  39  37 E12       30.15S
MILWAUKEE/TIMM SUNNY     66  30  26 E12       30.16S
RACINE         MOSUNNY   62  39  42 NE14      30.18R
BURLINGTON     PTSUNNY   66  52  59 E10       30.14S
KENOSHA        PTSUNNY   64  44  48 E13       30.15S
FOND DU LAC    MOSUNNY   72  44  36 N7        30.14S
SHEBOYGAN      SUNNY     61  42  49 E14       30.17R
WEST BEND      SUNNY     68  32  26 E13       30.15S
JUNEAU         MOSUNNY   71  55  57 SE8       30.14S
$$

LSZ147-162-042200-
LAKE SUPERIOR

STATION/POSITION TIME  TEMP    WIND        PRES    WAVE
                       AIR SEA DIR/SP/G            HT/PER
                 (UTC) (F)     (DEG/KT/KT) (MB)    (FT/S)
W MID LAKE BUOY  2050   40 36  190/ 10/ 10 1023.1F   0
DEVILS ISLAND    2100   60     210/  8/ 10 1022.5F
PORT WING        2040   60     310/  4/  6 1022.4F
SAXON HARBOR     2000   61        CALM     1023.0S
$$

LMZ867-665-643>646-042200-
LAKE MICHIGAN

STATION/POSITION TIME  TEMP    WIND        PRES    WAVE
                       AIR SEA DIR/SP/G            HT/PER
                 (UTC) (F)     (DEG/KT/KT) (MB)    (FT/S)
CHAMBERS ISLAND  2000   59      60/ 14/ 17 1021.0R
NORTHPORT PIER   2000   50     120/  5/  8 1021.3R
SISTER BAY       2002   71      30/  8/ 14   N/A
KEWAUNEE LAKESHO 2000   51      40/  9/ 11 1020.6R
SHEBOYGAN LAKESH 2100   50      70/  4/  7 1022.0F
PORT WASHINGTON  2040   58      40/  3/  4 1022.0R
ATWATER BUOY     2100   50     350/  4/  4 1022.7R
MILWAUKEE LAKESH 2100   51      40/  4/  5   N/A
KENOSHA   LAKESH 2100   49      10/  9/ 10 1021.0S
$$

TC  - TEMPERATURE IN CELSIUS
VSB - VISIBILITY IN STATUTE MILES
WCI - WIND CHILL INDEX
HX  - HEAT INDEX




USA.gov is the U.S. government's official web portal to all federal, state and local government web resources and services.